Regional Weather Roundup
Issued by NWS

Home | Current Version | Previous Version | Graphics & Text | Print | Product List | Glossary On
Versions: 1 2 3 4 5 6 7 8 9 10 11 12 13 14 15 16 17 18 19 20 21 22 23 24 25 26 27 28 29 30 31 32 33 34 35 36 37 38 39 40 41 42 43 44 45 46 47 48 49
000
ASUS45 KSLC 210510
RWRUT

UTAH REGIONAL WEATHER ROUNDUP
NATIONAL WEATHER SERVICE SALT LAKE CITY UT
1100 PM MDT SAT SEP 20 2014

UTZ001>011-023>025-210600-

NORTHERN UTAH

CITY           SKY/WX    TMP DP  RH WIND       PRES   REMARKS
HILL AFB       MOCLDY    73  37  27 SE12      30.10S
LOGAN          CLEAR     57  49  74 N5        30.11S
OGDEN          MOCLDY    72  38  29 SW8       30.07S
PROVO AIRPORT  CLOUDY    68  50  52 SE5       30.13R
SALT LAKE CITY MOCLDY    70  49  47 S5        30.07R
VERNAL         CLEAR     62  38  40 W5        30.17S
WENDOVER       CLOUDY    73  41  31 CALM      30.09R
HEBER CITY     PTCLDY    54  43  66 CALM      30.18S
WEST JORDAN    CLEAR     70  37  30 SW6       30.12R

$$

UTZ012>022-026-027-210600-

SOUTHERN UTAH

CITY           SKY/WX    TMP DP  RH WIND       PRES   REMARKS
BRYCE CANYON   CLOUDY    57  49  74 NW10      30.29F
CEDAR CITY     CLOUDY    63  51  65 E9        30.16F
MILFORD        LGT RAIN  63  58  83 W3        30.15F
MOAB/CYNLANDS  CLEAR     83  33  16 NE15      30.00S
PRICE          PTCLDY    73  37  27 N8        30.16S
ST GEORGE      PTCLDY    75  55  50 E8        29.99F
KANAB          MOCLDY    66  54  63 N8        30.14F

$$

REGIONAL REPORTS     COLORADO/ARIZONA

CITY           SKY/WX    TMP DP  RH WIND       PRES   REMARKS
CRAIG, CO      PTCLDY    48  35  60 CALM      30.26R
GRAND JUNCTION PTCLDY    70  41  34 E9        30.10S
RIFLE          PTCLDY    66  43  43 CALM      30.18S
MONTROSE       MOCLDY    73  44  35 SE9       30.21R
CORTEZ         MOCLDY    66  49  54 MISG      30.16S
PAGE, AZ       LGT RAIN  76  54  46 SW6       30.08R
GRAND CANYON   CLOUDY    57  55  93 CALM      30.24R
KINGMAN        PTCLDY    78  54  43 S9        29.99R
FLAGSTAFF      CLOUDY    61  54  77 CALM      30.27R

$$

REGIONAL REPORTS    NEVADA/IDAHO/WYOMING

CITY           SKY/WX    TMP DP  RH WIND       PRES   REMARKS
LAS VEGAS, NV  CLOUDY    85  55  35 N5        29.86R THUNDER
ELY            LGT RAIN  62  48  60 S12       30.23S
ELKO           CLOUDY    64  46  52 CALM      30.16R
POCATELLO, ID  CLEAR     60  47  61 NE3       30.13S
BURLEY         CLEAR     55  45  68 CALM      30.09S
EVANSTON, WY   CLEAR     60  28  29 E6        30.30S
ROCK SPRINGS   CLEAR     59  35  40 E16       30.31R

$$


USA.gov is the U.S. government's official web portal to all federal, state and local government web resources and services.